EHI
0 2 5 6 5 4 3 4 4 4 4 2 0 0 0 0 0 0 0 0 0 0 0 0 0 0 0 0 0 0 0 0 0 0 0 0 0 0 0 0 0 0 0
0 2 5 7 6 5 3 4 4 4 3 2 1 0 0 0 0 0 0 0 0 0 0 0 0 0 0 0 0 0 0 0 0 0 0 0 0 0 0 0 0 0 0
1 3 5 7 7 6 4 4 4 4 3 2 1 1 0 0 0 0 0 0 0 0 0 0 0 0 1 1 0 0 0 0 0 0 0 0 0 0 0 0 0 0 0
1 3 5 7 8 7 6 4 3 3 2 1 1 1 0 0 0 0 0 1 1 0 0 0 0 1 1 0 0 0 0 0 0 0 0 0 0 0 0 0 0 0 0
1 2 5 7 9 8 7 5 3 1 1 1 1 1 1 0 0 0 0 1 1 0 0 0 0 0 0 0 0 0 0 0 0 0 0 0 0 0 0 0 0 0 0
1 2 5 8 9 9 7 4 2 0 0 0 1 1 1 0 0 0 0 0 0 0 0 0 0 0 0 0 0 0 0 0 0 0 0 0 0 0 0 0 0 0 0
1 2 4 7 8 8 6 4 2 1 1 1 1 1 0 0 0 0 0 0 0 0 0 0 0 0 0 0 0 0 0 0 0 0 0 0 0 0 0 0 0 0 0
1 2 4 5 5 6 5 4 3 3 2 3 3 1 0 1 1 0 0 0 0 0 0 0 0 0 0 0 0 0 0 0 0 0 0 1 1 0 0 0 0 0 0
1 2 3 2 2 2 3 3 3 3 3 3 3 2 1 1 1 0 0 0 0 0 0 0 0 0 0 0 0 0 0 0 0 1 1 2 2 1 0 0 0 0 0
0 1 1 1 0 0 1 1 2 2 2 1 1 1 0 1 1 0 0 0 0 0 0 0 0 0 0 0 0 0 0 0 1 2 3 3 3 1 0 0 0 0 0
0 0 0 0 0 0 0 0 1 1 1 0 0 0 0 0 0 0 0 0 0 0 0 0 0 0 0 0 0 0 0 0 1 2 2 3 3 2 1 1 1 1 0
0 0 0 0 0 0 0 1 1 1 1 0 0 0 0 0 0 0 0 0 0 0 0 0 0 0 0 0 0 0 0 0 0 1 1 1 2 2 1 1 1 1 1
0 0 0 0 0 1 1 2 3 4 3 1 1 1 2 1 0 0 0 0 0 0 0 0 0 0 0 0 0 0 0 0 0 0 0 1 1 1 0 0 1 1 0
0 0 0 0 0 1 2 2 3 5 5 3 2 2 3 2 1 0 0 0 0 0 0 0 0 0 0 0 0 0 0 0 0 0 0 0 0 0 0 0 0 0 0
0 0 0 0 0 0 1 1 1 3 4 3 2 2 2 2 1 0 0 0 0 0 0 0 0 0 0 0 0 0 0 0 0 0 0 0 0 0 0 0 0 0 0
0 0 0 0 0 0 0 0 0 1 2 2 1 1 1 1 0 0 0 0 0 0 0 0 0 0 0 0 0 0 0 0 0 0 0 0 0 0 0 0 0 0 0
0 0 0 0 0 0 0 0 0 0 0 0 0 0 0 0 0 0 0 0 0 0 0 0 0 0 0 0 0 0 0 0 0 0 0 0 0 0 0 0 0 0 0
0 0 0 0 0 0 0 0 0 0 0 0 0 0 0 0 0 0 0 0 0 0 0 0 0 0 0 0 0 0 0 0 0 0 0 0 0 0 0 0 0 0 0
0 0 0 0 0 0 0 0 0 0 0 0 0 0 0 0 0 0 0 0 0 0 0 0 0 0 0 0 0 0 0 0 0 0 0 0 0 0 0 0 0 0 0
0 0 0 0 0 0 0 0 0 0 0 0 0 0 0 0 0 0 0 0 0 0 0 0 0 0 0 0 0 0 0 0 0 0 0 0 0 0 0 0 0 0 0
0 0 0 0 0 0 0 0 0 0 0 0 0 0 0 0 0 0 0 0 0 0 0 0 0 0 0 0 0 0 0 0 0 0 0 0 0 0 0 0 0 0 0
0 0 0 0 0 0 0 0 0 0 0 0 0 0 0 0 0 0 0 0 0 0 0 0 0 0 0 0 0 0 0 0 0 0 0 0 0 0 0 0 0 0 0
0 0 0 0 0 0 0 0 0 0 0 0 0 0 0 0 0 0 0 0 0 0 0 0 0 0 0 0 0 0 0 0 0 0 0 0 0 0 0 0 0 0 0
0 0 0 0 0 0 0 0 0 0 0 0 0 0 0 0 0 0 0 0 0 0 0 0 0 0 0 0 0 0 0 0 0 0 0 0 0 0 0 0 0 0 0
0 0 0 0 0 0 0 0 0 0 0 0 0 0 0 0 0 0 0 0 0 0 0 0 0 0 0 0 0 0 0 0 0 0 0 0 0 0 0 0 0 0 0
0 0 0 0 0 0 0 0 0 0 0 0 0 0 0 0 0 0 0 0 0 0 0 0 0 0 0 0 0 0 0 0 0 0 0 0 0 0 0 0 0 0 0
Wind_Speed
2 1 1 2 5 7 8 9 9 9 9 9 9 10 10 10 10 10 10 10 11 11 12 12 13 13 14 14 14 14 14 14 15 15 14 14 14 15 14 12 11 13 15
2 2 2 3 6 8 9 9 9 9 9 9 9 10 10 11 11 10 11 10 10 11 11 12 12 13 13 13 13 13 14 14 14 12 11 12 13 14 14 13 12 12 15
3 3 3 4 7 8 9 9 9 9 9 9 9 9 10 10 11 11 11 11 10 10 11 11 12 12 12 12 13 13 13 13 12 9 7 10 12 13 14 13 14 15 15
4 4 3 6 8 9 9 9 9 9 9 10 9 9 9 10 10 11 11 11 11 10 11 11 11 12 12 12 12 12 12 11 9 5 7 9 10 13 13 13 14 14 14
4 3 4 7 8 9 9 9 9 9 9 10 10 10 10 10 10 10 11 11 10 10 10 10 11 11 11 11 11 11 11 10 7 6 8 8 9 12 12 13 13 14 14
5 4 5 7 8 9 9 9 9 9 9 10 10 11 11 10 10 10 10 11 10 10 10 10 10 10 10 11 11 11 10 8 5 7 7 7 8 11 12 12 12 13 13
5 4 5 7 8 9 9 9 8 9 9 9 10 10 10 10 11 11 10 10 10 10 10 10 10 9 10 10 10 10 9 6 6 7 7 7 8 10 11 11 12 12 12
5 4 5 7 8 8 9 9 8 8 9 9 10 10 10 10 11 11 10 10 10 9 9 9 9 9 9 9 9 9 8 4 6 7 7 7 9 10 11 11 11 11 11
5 4 4 5 6 8 9 9 9 9 9 9 9 9 9 10 10 10 9 9 9 9 9 9 9 8 8 8 9 8 7 4 5 5 6 6 8 9 10 11 11 11 11
4 4 4 4 5 5 6 9 9 9 9 9 10 10 10 9 9 9 8 8 9 9 9 9 9 8 8 8 8 7 5 3 5 5 4 6 8 9 10 10 10 10 10
3 3 3 4 4 4 5 6 7 8 9 8 8 9 7 5 6 6 8 8 9 9 8 8 8 8 6 7 7 5 2 3 4 4 4 7 7 8 9 9 9 10 10
2 2 2 3 3 4 3 4 3 4 5 4 4 5 3 4 4 5 8 9 9 9 8 8 7 5 2 3 4 2 2 4 3 3 5 7 7 8 8 8 9 9 9
2 2 2 2 3 3 3 3 2 2 3 3 4 4 3 3 3 3 3 4 5 4 4 4 3 2 2 2 2 2 2 2 2 3 5 7 7 7 7 8 8 8 8
3 2 2 2 2 2 3 3 3 2 2 3 3 3 3 2 2 2 2 2 2 2 2 2 1 2 3 2 2 3 3 2 2 2 4 6 6 6 6 7 7 7 8
3 2 2 2 2 2 2 2 2 2 2 3 3 2 2 2 2 2 2 2 2 1 1 1 1 2 2 2 2 3 3 3 3 3 3 6 6 6 6 6 7 7 7
2 2 2 2 2 2 2 2 2 2 2 2 2 2 2 2 2 2 2 2 1 1 1 1 1 1 1 1 2 2 2 2 2 2 3 4 6 6 5 5 6 6 6
1 1 1 2 2 2 2 3 2 2 2 2 2 2 2 2 2 2 1 1 1 1 1 1 1 1 1 1 2 2 2 2 2 2 2 2 3 5 5 4 5 6 5
1 1 1 1 2 2 2 2 2 2 2 2 2 1 2 2 2 1 1 1 1 0 1 1 1 1 1 1 1 1 1 1 2 2 1 2 2 2 4 5 5 5 4
1 1 1 1 1 1 2 2 2 2 2 2 1 1 1 2 1 1 1 1 1 0 1 1 1 1 1 1 1 1 1 1 1 1 2 2 2 2 2 4 5 5 5
1 1 1 2 1 1 1 2 2 2 2 1 1 1 1 1 1 1 1 1 0 0 1 1 1 1 1 1 1 1 1 1 1 1 1 2 2 2 2 2 2 3 4
1 1 1 1 1 1 1 1 1 1 1 1 1 1 1 1 0 0 1 1 0 0 1 1 2 2 1 1 2 1 1 1 1 1 1 1 1 1 1 1 1 1 1
1 1 1 1 1 1 0 0 0 1 1 1 1 1 0 1 0 1 1 1 1 1 1 1 2 1 1 1 2 2 2 2 2 1 0 0 1 1 1 1 1 0 0
1 1 1 1 1 0 0 1 1 1 1 1 1 0 0 1 1 0 1 1 1 1 2 2 2 3 2 2 2 2 2 2 1 2 2 1 1 1 1 1 1 0 0
1 1 1 1 1 0 0 1 1 1 1 1 1 1 1 1 0 1 1 1 1 2 2 2 3 3 3 3 2 1 2 1 2 1 2 2 2 2 2 1 2 2 1
1 1 1 1 1 1 1 1 1 1 1 0 1 1 1 1 1 1 1 1 1 2 2 3 3 3 3 3 2 2 1 1 2 3 3 2 3 3 3 3 3 2 2
1 1 1 1 1 1 1 1 1 2 1 1 1 1 1 1 1 1 1 2 2 2 2 2 3 4 4 4 3 2 2 2 3 3 3 3 3 2 3 3 3 3 3
Wind_Direction
145 130 17 55 85 87 86 85 85 88 88 91 92 92 90 92 92 92 96 98 97 95 93 91 91 89 86 86 84 82 81 79 78 78 78 78 81 82 80 78 83 83 81
146 150 96 66 87 88 86 84 83 83 85 88 90 91 89 88 89 91 90 93 95 95 94 91 90 88 87 86 86 84 81 81 81 80 82 84 80 81 79 71 67 82 84
136 139 125 80 91 88 85 84 83 82 82 86 89 89 89 88 86 86 85 85 88 93 95 92 91 90 87 85 86 86 84 82 81 80 91 90 87 83 82 79 80 84 84
131 130 122 87 93 91 87 85 83 82 82 83 86 89 88 87 86 85 81 79 81 87 94 93 91 90 88 87 88 88 86 82 78 80 88 85 87 85 84 84 86 86 85
125 121 106 89 93 94 91 88 86 83 83 82 82 84 85 85 84 83 81 78 78 80 88 92 92 91 90 89 90 90 88 83 79 87 85 84 84 86 85 85 86 87 85
120 113 104 89 92 92 91 89 88 86 84 83 83 82 82 83 84 81 80 79 78 80 82 90 94 92 90 90 92 92 89 85 101 90 87 85 85 88 89 88 87 87 85
120 110 105 89 92 92 92 89 88 88 87 85 83 82 83 82 81 79 77 78 77 79 82 86 93 95 92 91 92 91 87 78 94 91 88 86 84 89 92 92 90 88 88
119 114 108 90 88 89 86 84 85 87 88 86 85 82 80 80 79 77 78 78 76 78 81 83 86 91 93 92 90 87 80 79 99 93 91 88 79 87 94 93 91 89 89
116 111 104 108 97 84 79 76 77 78 77 78 82 80 76 73 74 73 73 74 72 71 73 74 77 82 85 88 88 83 74 59 96 93 90 86 80 86 93 94 91 91 89
99 96 100 103 106 104 92 76 72 70 71 72 71 71 71 70 70 69 70 69 70 68 68 71 68 69 78 84 86 81 77 96 96 95 91 84 81 88 93 95 93 93 92
92 86 92 97 98 102 101 91 83 75 67 69 72 71 74 87 88 78 66 61 64 62 63 67 68 66 71 84 78 75 98 100 98 90 87 81 88 93 94 95 95 93 92
111 83 82 97 94 98 100 105 100 92 85 78 82 87 84 80 72 70 62 58 57 56 60 59 59 68 71 103 95 93 104 102 95 90 83 79 93 98 98 99 96 94 93
140 108 69 76 95 102 102 99 92 90 91 85 78 79 83 84 84 78 76 71 71 65 68 66 67 68 63 82 103 101 96 95 93 90 80 75 90 99 104 105 102 98 97
142 123 93 78 86 105 103 99 101 96 96 89 79 80 88 86 83 80 78 71 73 71 67 63 58 71 69 73 101 107 104 100 95 91 74 67 81 93 99 108 113 107 103
153 145 122 104 97 97 106 98 96 96 94 92 81 72 82 94 94 88 81 72 60 69 77 82 92 90 86 68 85 105 109 104 101 100 89 65 68 82 95 100 111 112 108
165 158 149 134 114 107 108 110 104 101 98 93 87 74 74 86 99 97 89 73 54 59 63 98 101 98 88 73 83 100 106 108 99 103 96 82 65 66 80 96 108 112 108
178 157 151 140 127 126 124 124 113 110 112 101 93 86 75 78 104 107 94 82 54 49 88 102 107 101 92 88 81 95 95 95 102 100 96 91 87 70 71 84 94 101 104
159 146 141 115 128 122 110 130 124 119 115 105 102 96 80 75 88 108 111 97 68 73 112 120 141 128 121 122 91 89 107 92 97 101 96 90 88 89 79 69 78 82 87
159 133 119 108 104 101 109 120 126 124 116 106 103 100 92 80 76 83 87 82 117 123 119 131 163 154 145 131 108 82 90 105 111 117 110 87 76 74 79 73 67 65 67
126 120 107 101 88 87 111 118 121 122 116 114 121 116 116 97 82 79 89 80 94 148 146 165 153 129 145 152 121 75 81 131 134 125 127 108 87 79 76 86 89 70 59
109 118 109 90 70 85 114 133 162 154 137 138 136 129 132 122 116 103 88 119 126 188 184 171 156 148 129 161 148 129 118 136 139 141 136 134 115 102 94 86 77 74 84
144 154 148 141 128 107 41 78 272 164 149 139 119 113 112 149 190 231 164 187 196 207 185 182 175 172 148 213 205 182 194 190 178 192 195 156 161 148 128 107 98 72 145
179 200 198 182 168 152 46 79 115 115 106 126 160 187 206 199 184 240 244 223 214 209 209 210 206 201 191 208 247 238 214 213 170 173 201 210 208 208 196 202 192 192 201
236 231 214 187 174 157 149 115 170 183 210 226 211 216 215 222 223 260 242 236 242 236 224 223 223 222 215 209 207 287 305 308 227 201 193 207 224 232 227 223 213 211 217
282 266 227 195 180 182 188 188 236 246 257 228 186 201 209 233 231 253 253 232 230 246 246 237 228 224 225 228 213 211 217 246 259 244 229 211 219 230 236 231 230 225 225
355 326 272 213 204 202 210 222 248 259 241 213 225 234 227 245 247 247 249 243 235 237 247 249 240 230 229 231 226 224 217 214 220 239 241 239 242 228 234 234 231 231 231